Skip Page Navigation
NASA JPL Caltech
NASA Logo - Jet Propulsion Laboratory + View the NASA Portal
+ Center for Near-Earth Object Studies
JPL Home Earth Solar System Stars & Galaxies Technology
JPL Solar System Dynamics
BODIES ORBITS EPHEMERIDES TOOLS PHYSICAL DATA DISCOVERY FAQ SITE MAP
IMPORTANT: The SSD Announcement email list is now available. Major changes are coming in the near future, including possible hostname and/or URL changes. To be notified of such changes, subscribe to this email list.

Please visit this page for more details.


JPL Small-Body Database Browser
Search: [ help ]  
25358 Boskovice (1999 TY3)
Classification: Main-belt Asteroid          SPK-ID: 2025358
Ephemeris | Orbit Diagram | Orbital Elements | Mission Design | Physical Parameters | Discovery Circumstances | Close-Approach Data ]

[ hide orbit diagram ]

For accurate long-term ephemerides, please instead use our Horizons system.This orbit viewer was implemented using two-body methods, and hence should not be used for determining accurate long-term trajectories (over several years or decades) or planetary encounter circumstances.


[ revert to old Java-based viewer ]

Orbital Elements at Epoch 2459000.5 (2020-May-31.0) TDB
Reference: JPL 20 (heliocentric ecliptic J2000)
 Element Value Uncertainty (1-sigma)   Units 
e .1526523274432261 3.2767e-08  
a 2.330735461429892 9.0511e-09 au
q 1.974943268588157 7.663e-08 au
i 3.615379029713709 4.9659e-06 deg
node 24.58591830170051 6.2083e-05 deg
peri 85.13080418753934 6.5577e-05 deg
M 214.7386983555729 1.8136e-05 deg
tp 2459524.927350433063
(2021-Nov-06.42735043)
6.5475e-05 TDB
period 1299.68438957015
3.56
7.5707e-06
2.073e-08
d
yr
n .2769903238732169 1.6135e-09 deg/d
Q 2.686527654271627 1.0433e-08 au
  Orbit Determination Parameters
   # obs. used (total)      931  
   data-arc span      9666 days (26.46 yr)  
   first obs. used      1992-11-20  
   last obs. used      2019-05-09  
   planetary ephem.      DE431  
   SB-pert. ephem.      SB431-N16  
   condition code      0  
   norm. resid. RMS      .53465  
   source      ORB  
   producer      Otto Matic  
   solution date      2019-May-30 03:21:03  

Additional Information
 Earth MOID = .995522 au 
 Jupiter MOID = 2.42564 au 
 T_jup = 3.553 
[ show covariance matrix ]

Ephemeris | Orbit Diagram | Orbital Elements | Mission Design | Physical Parameters | Discovery Circumstances | Close-Approach Data ]

Physical Parameter Table
Parameter Symbol Value Units Sigma Reference Notes
absolute magnitude H 15.6   n/a MPO319399  

25358 Boskovice           Discovered 1999 Oct. 2 by L. Šarounová at Ondřejov.
Boskovice a town in Middle Moravia, was settled in prehistoric times. A gothic castle from the 13th century and a Jewish quarter are among its many tourist attractions.
NOTE: some special characters may not display properly (any characters within {} are an attempt to place the proper accent above a character)
Reference: 20110218/MPCPages.arcLast Updated: 2011-02-22

[ show close-approach data ]
Ephemeris | Orbit Diagram | Orbital Elements | Mission Design | Physical Parameters | Discovery Circumstances | Close-Approach Data ]
ABOUT SSD CREDITS/AWARDS PRIVACY/COPYRIGHT GLOSSARY LINKS
FirstGov 2020-Feb-18 00:59 UT
(server date/time)  
NASA Home Page
Site Manager:   Ryan S. Park
Webmaster  Alan B. Chamberlin